EW7351 Weather Reports


Display with metric or nautical units.
time (UTC)temp
F
wind
direction
speed
MPH
gust
MPH
rain 1hr
in
rain 24hr
in
rain mn
in
humidity
%
barometer
mb
20260503013417 67 156 0.0 0.0 0.00 0.00 0.00 43 1017.5
20260503013116 68 156 0.0 1.0 0.00 0.00 0.00 43 1017.5
20260503012343 69 156 0.0 1.0 0.00 0.00 0.00 42 1017.4
20260503011845 69 156 0.0 1.0 0.00 0.00 0.00 40 1017.4
20260503011317 69 123 0.0 1.0 0.00 0.00 0.00 40 1017.4
20260503010815 70 123 0.0 1.0 0.00 0.00 0.00 40 1017.3
20260503010310 71 123 0.0 1.0 0.00 0.00 0.00 38 1017.3
20260503005806 71 123 0.0 1.0 0.00 0.00 0.00 36 1017.3
20260503005300 72 123 0.0 2.0 0.00 0.00 0.00 34 1017.2
20260503004759 73 123 0.0 2.0 0.00 0.00 0.00 34 1017.2
20260503004255 73 172 0.0 3.0 0.00 0.00 0.00 33 1017.1
20260503003753 74 239 0.0 3.0 0.00 0.00 0.00 32 1017.1
20260503003240 75 199 0.0 3.0 0.00 0.00 0.00 31 1017.1
20260503002740 75 200 0.0 3.0 0.00 0.00 0.00 30 1017.1
20260503002230 76 221 0.0 3.0 0.00 0.00 0.00 30 1017.1
20260503001729 78 256 0.0 3.0 0.00 0.00 0.00 28 1017.0
20260503001423 78 272 0.0 3.0 0.00 0.00 0.00 27 1017.0
20260503000913 78 257 0.0 1.0 0.00 0.00 0.00 28 1017.0
20260503000153 78 257 0.0 1.0 0.00 0.00 0.00 29 1017.0
20260502235627 77 37 0.0 2.0 0.00 0.00 0.00 28 1016.9
20260502235058 77 266 0.0 3.0 0.00 0.00 0.00 28 1017.0
20260502234532 77 283 1.0 3.0 0.00 0.00 0.00 29 1017.1
20260502234030 77 345 1.0 3.0 0.00 0.00 0.00 26 1017.1
20260502233528 77 334 0.0 2.0 0.00 0.00 0.00 28 1017.1
20260502232955 77 1 1.0 4.0 0.00 0.00 0.00 28 1017.1
20260502232426 77 11 1.0 4.0 0.00 0.00 0.00 27 1017.2
20260502231902 77 342 1.0 3.0 0.00 0.00 0.00 27 1017.2
20260502231358 77 340 2.0 6.0 0.00 0.00 0.00 28 1017.2
20260502231117 77 39 1.0 6.0 0.00 0.00 0.00 26 1017.2
20260502230336 77 23 1.0 5.0 0.00 0.00 0.00 26 1017.2
20260502225758 77 340 1.0 5.0 0.00 0.00 0.00 26 1017.3
20260502225257 77 70 0.0 5.0 0.00 0.00 0.00 27 1017.3
20260502224744 78 4 0.0 5.0 0.00 0.00 0.00 26 1017.3
20260502224244 78 3 1.0 5.0 0.00 0.00 0.00 25 1017.4
20260502223717 77 231 1.0 6.0 0.00 0.00 0.00 25 1017.4
20260502223148 77 359 2.0 7.0 0.00 0.00 0.00 26 1017.4
20260502222646 77 344 2.0 7.0 0.00 0.00 0.00 26 1017.5
20260502222345 77 53 2.0 8.0 0.00 0.00 0.00 26 1017.5
20260502221815 77 10 1.0 8.0 0.00 0.00 0.00 26 1017.5
20260502221048 77 341 1.0 7.0 0.00 0.00 0.00 26 1017.4
20260502220522 77 338 1.0 5.0 0.00 0.00 0.00 26 1017.5
20260502220225 77 41 2.0 5.0 0.00 0.00 0.00 26 1017.5
20260502215456 77 328 2.0 6.0 0.00 0.00 0.00 25 1017.6
20260502214954 77 263 2.0 7.0 0.00 0.00 0.00 26 1017.6
20260502214709 78 95 1.0 7.0 0.00 0.00 0.00 28 1017.6
20260502213946 78 205 1.0 4.0 0.00 0.00 0.00 27 1017.7
20260502213421 77 217 1.0 4.0 0.00 0.00 0.00 28 1017.8
20260502212854 77 67 2.0 4.0 0.00 0.00 0.00 27 1017.9
20260502212329 77 39 2.0 6.0 0.00 0.00 0.00 27 1018.0
20260502211803 77 352 1.0 7.0 0.00 0.00 0.00 27 1018.0
20260502211240 77 32 1.0 7.0 0.00 0.00 0.00 27 1018.0
20260502210711 77 32 1.0 7.0 0.00 0.00 0.00 30 1018.2
20260502210147 77 18 1.0 7.0 0.00 0.00 0.00 26 1018.3
20260502205621 78 353 2.0 7.0 0.00 0.00 0.00 24 1018.3
20260502205607 78 7 2.0 7.0 0.00 0.00 0.00 29 1018.4
20260502204616 78 331 1.0 5.0 0.00 0.00 0.00 30 1018.5
20260502204048 78 255 1.0 6.0 0.00 0.00 0.00 30 1018.5
20260502203548 77 255 2.0 6.0 0.00 0.00 0.00 30 1018.5
20260502203028 77 272 3.0 9.0 0.00 0.00 0.00 30 1018.6
20260502202516 76 311 3.0 9.0 0.00 0.00 0.00 26 1018.6
20260502202244 77 347 2.0 7.0 0.00 0.00 0.00 27 1018.7
20260502201506 78 354 0.0 7.0 0.00 0.00 0.00 31 1018.8
20260502201007 77 122 1.0 6.0 0.00 0.00 0.00 30 1018.8
20260502200506 77 70 1.0 6.0 0.00 0.00 0.00 30 1018.8
20260502195943 77 235 0.0 6.0 0.00 0.00 0.00 33 1018.9
20260502195443 76 161 1.0 8.0 0.00 0.00 0.00 36 1019.0
20260502194920 75 340 3.0 8.0 0.00 0.00 0.00 27 1019.0
20260502194418 76 319 2.0 8.0 0.00 0.00 0.00 27 1019.1
20260502194125 76 13 1.0 5.0 0.00 0.00 0.00 27 1019.1
20260502193344 76 343 1.0 5.0 0.00 0.00 0.00 30 1019.2
20260502192829 75 335 2.0 10.0 0.00 0.00 0.00 28 1019.3
20260502192528 75 19 2.0 10.0 0.00 0.00 0.00 29 1019.3
20260502191759 76 339 1.0 7.0 0.00 0.00 0.00 29 1019.4
20260502191247 77 18 1.0 7.0 0.00 0.00 0.00 27 1019.4
20260502190724 76 220 1.0 7.0 0.00 0.00 0.00 31 1019.5
20260502190202 76 246 1.0 7.0 0.00 0.00 0.00 33 1019.5
20260502185702 75 302 2.0 12.0 0.00 0.00 0.00 27 1019.6
20260502185205 76 352 2.0 12.0 0.00 0.00 0.00 29 1019.6
20260502184908 76 131 1.0 6.0 0.00 0.00 0.00 29 1019.7
20260502184147 75 337 1.0 6.0 0.00 0.00 0.00 30 1019.8
20260502183648 76 60 1.0 5.0 0.00 0.00 0.00 31 1019.8
20260502183136 75 66 1.0 5.0 0.00 0.00 0.00 33 1019.9
20260502183118 75 113 1.0 8.0 0.00 0.00 0.00 32 1019.9
20260502182132 74 308 2.0 8.0 0.00 0.00 0.00 27 1020.0
20260502181631 74 126 2.0 8.0 0.00 0.00 0.00 34 1020.1
20260502181131 74 28 2.0 10.0 0.00 0.00 0.00 26 1020.2
20260502180607 74 51 1.0 10.0 0.00 0.00 0.00 28 1020.3
20260502170406 73 78 1.0 3.0 0.00 0.00 0.00 30 1021.0
20260502164334 70 34 2.0 7.0 0.00 0.00 0.00 33 1021.0
20260502163806 70 328 2.0 7.0 0.00 0.00 0.00 32 1021.0
20260502163518 70 79 2.0 7.0 0.00 0.00 0.00 33 1021.0
20260502162727 70 67 2.0 6.0 0.00 0.00 0.00 29 1020.9
20260502162201 70 68 2.0 9.0 0.00 0.00 0.00 33 1020.9
20260502161634 70 344 1.0 9.0 0.00 0.00 0.00 36 1021.0
20260502161108 70 43 2.0 7.0 0.00 0.00 0.00 36 1021.0
20260502160538 69 332 2.0 7.0 0.00 0.00 0.00 31 1021.0
20260502152100 67 332 1.0 4.0 0.00 0.00 0.00 42 1020.8
20260502151340 67 334 1.0 4.0 0.00 0.00 0.00 41 1020.7
20260502150835 66 318 1.0 4.0 0.00 0.00 0.00 43 1020.8
20260502150329 66 284 1.0 4.0 0.00 0.00 0.00 44 1020.7
20260502130325 55 285 0.0 1.0 0.00 0.00 0.00 82 1019.9
20260502123750 51 1 0.0 2.0 0.00 0.00 0.00 88 1019.5
20260502123221 51 281 0.0 0.0 0.00 0.00 0.00 88 1019.4
20260502122720 50 280 0.0 0.0 0.00 0.00 0.00 87 1019.3
20260502122150 50 280 0.0 0.0 0.00 0.00 0.00 87 1019.2
20260502121650 50 280 0.0 0.0 0.00 0.00 0.00 87 1019.1
20260502121410 50 280 0.0 0.0 0.00 0.00 0.00 87 1019.0
20260502120619 50 280 0.0 0.0 0.00 0.00 0.00 87 1018.9
20260502120118 50 280 0.0 0.0 0.00 0.00 0.00 86 1018.8
20260502115614 50 280 0.0 0.0 0.00 0.00 0.00 86 1018.9
20260502115112 50 280 0.0 0.0 0.00 0.00 0.00 86 1018.7
20260502114546 50 280 0.0 0.0 0.00 0.00 0.00 86 1018.6
20260502114018 50 280 0.0 0.0 0.00 0.00 0.00 86 1018.5
20260502113742 51 280 0.0 0.0 0.00 0.00 0.00 86 1018.5
20260502112948 50 280 0.0 0.0 0.00 0.00 0.00 85 1018.4
20260502112447 51 280 0.0 0.0 0.00 0.00 0.00 85 1018.4
20260502111919 51 280 0.0 0.0 0.00 0.00 0.00 85 1018.2
20260502111418 51 280 0.0 0.0 0.00 0.00 0.00 85 1018.2
20260502110853 51 280 0.0 0.0 0.00 0.00 0.00 85 1018.0
20260502110542 51 280 0.0 0.0 0.00 0.00 0.00 85 1018.2
20260502105752 51 280 0.0 0.0 0.00 0.00 0.00 85 1018.2
20260502105714 51 280 0.0 0.0 0.00 0.00 0.00 85 1018.0
20260502104659 50 280 0.0 0.0 0.00 0.00 0.00 85 1017.9
20260502104154 51 280 0.0 0.0 0.00 0.00 0.00 85 1017.9
20260502103652 51 8 0.0 0.0 0.00 0.00 0.00 84 1017.7
20260502103153 51 8 0.0 0.0 0.00 0.00 0.00 84 1017.6
20260502102623 51 8 0.0 0.0 0.00 0.00 0.00 83 1017.7
20260502102307 51 8 0.0 1.0 0.00 0.00 0.00 83 1017.6
20260502102147 51 8 0.0 1.0 0.00 0.00 0.00 83 1017.6
20260502101030 52 8 0.0 1.0 0.00 0.00 0.00 83 1017.6
20260502100501 52 330 0.0 1.0 0.00 0.00 0.00 82 1017.6
20260502100224 52 330 0.0 1.0 0.00 0.00 0.00 82 1017.7
20260502091309 51 268 0.0 0.0 0.00 0.00 0.00 84 1017.5
20260502090745 51 268 0.0 0.0 0.00 0.00 0.00 84 1017.5
20260502090243 51 268 0.0 0.0 0.00 0.00 0.00 84 1017.5
20260502071519 52 263 0.0 0.0 0.00 0.00 0.00 85 1017.5
20260502071005 52 264 0.0 0.0 0.00 0.00 0.00 85 1017.5
20260502070504 52 263 0.0 0.0 0.00 0.00 0.00 84 1017.6
20260502070004 52 264 0.0 0.0 0.00 0.00 0.00 84 1017.6
20260502065506 52 264 0.0 0.0 0.00 0.00 0.00 84 1017.7
20260502064942 52 264 0.0 0.0 0.00 0.00 0.00 84 1017.7
20260502064415 52 263 0.0 0.0 0.00 0.00 0.00 84 1017.8
20260502064128 52 264 0.0 0.0 0.00 0.00 0.00 84 1017.8
20260502063403 53 264 0.0 0.0 0.00 0.00 0.00 84 1017.8
20260502062902 53 264 0.0 0.0 0.00 0.00 0.00 84 1017.8
20260502062607 53 263 0.0 0.0 0.00 0.00 0.00 84 1017.7
20260502061822 53 263 0.0 0.0 0.00 0.00 0.00 84 1017.7
20260502061531 53 264 0.0 0.0 0.00 0.00 0.00 84 1017.7
20260502060748 53 264 0.0 0.0 0.00 0.00 0.00 84 1017.6
20260502060242 53 264 0.0 0.0 0.00 0.00 0.00 84 1017.6
20260502055741 53 264 0.0 0.0 0.00 0.00 0.00 84 1017.6
20260502055237 53 264 0.0 0.0 0.00 0.00 0.00 83 1017.6
20260502054735 53 264 0.0 0.0 0.00 0.00 0.00 84 1017.6
20260502054232 53 264 0.0 0.0 0.00 0.00 0.00 83 1017.6
20260502053731 54 264 0.0 0.0 0.00 0.00 0.00 83 1017.6
20260502053231 54 264 0.0 0.0 0.00 0.00 0.00 83 1017.6
20260502052710 54 264 0.0 0.0 0.00 0.00 0.00 82 1017.7
20260502052209 54 264 0.0 0.0 0.00 0.00 0.00 83 1017.7
20260502051644 54 264 0.0 0.0 0.00 0.00 0.00 83 1017.7
20260502051121 54 264 0.0 0.0 0.00 0.00 0.00 83 1017.8
20260502050618 54 133 0.0 0.0 0.00 0.00 0.00 83 1017.7
20260502050114 55 133 0.0 0.0 0.00 0.00 0.00 83 1017.6
20260502045610 55 133 0.0 0.0 0.00 0.00 0.00 82 1017.6
20260502045047 55 133 0.0 0.0 0.00 0.00 0.00 82 1017.5
20260502044518 55 133 0.0 0.0 0.00 0.00 0.00 82 1017.5
20260502044017 55 133 0.0 0.0 0.00 0.00 0.00 82 1017.5
20260502043452 55 133 0.0 0.0 0.00 0.00 0.00 82 1017.6
20260502042925 55 133 0.0 0.0 0.00 0.00 0.00 81 1017.6
20260502042416 55 133 0.0 0.0 0.00 0.00 0.00 81 1017.6
20260502041914 55 133 0.0 0.0 0.00 0.00 0.00 80 1017.5
20260502041346 55 133 0.0 0.0 0.00 0.00 0.00 80 1017.4
20260502040845 55 133 0.0 0.0 0.00 0.00 0.00 79 1017.4
20260502040316 55 133 0.0 0.0 0.00 0.00 0.00 78 1017.4
20260502035813 56 133 0.0 0.0 0.00 0.00 0.00 78 1017.5
20260502035248 56 133 0.0 0.0 0.00 0.00 0.00 78 1017.5
20260502035208 56 133 0.0 0.0 0.00 0.00 0.00 78 1017.5
20260502034153 56 133 0.0 0.0 0.00 0.00 0.00 77 1017.6
20260502033654 56 133 0.0 0.0 0.00 0.00 0.00 77 1017.5
20260502033125 57 133 0.0 0.0 0.00 0.00 0.00 77 1017.5
20260502032623 57 133 0.0 0.0 0.00 0.00 0.00 76 1017.5
20260502032057 58 133 0.0 0.0 0.00 0.00 0.00 76 1017.3
20260502031528 58 133 0.0 0.0 0.00 0.00 0.00 75 1017.3
20260502031026 58 133 0.0 0.0 0.00 0.00 0.00 73 1017.2
20260502030506 58 133 0.0 0.0 0.00 0.00 0.00 73 1017.2
20260502030005 58 133 0.0 0.0 0.00 0.00 0.00 73 1017.2
20260502025503 58 133 0.0 0.0 0.00 0.00 0.00 72 1017.3
20260502025220 58 133 0.0 0.0 0.00 0.00 0.00 72 1017.2
20260502024453 59 133 0.0 0.0 0.00 0.00 0.00 72 1017.1
20260502023925 59 133 0.0 0.0 0.00 0.00 0.00 71 1017.1
20260502023421 59 133 0.0 0.0 0.00 0.00 0.00 72 1017.1
20260502022921 59 133 0.0 0.0 0.00 0.00 0.00 71 1017.0
20260502022353 59 133 0.0 0.0 0.00 0.00 0.00 70 1017.0
20260502021852 59 133 0.0 0.0 0.00 0.00 0.00 69 1016.9
20260502021322 59 133 0.0 0.0 0.00 0.00 0.00 69 1016.8
20260502021020 60 133 0.0 0.0 0.00 0.00 0.00 69 1016.7
20260502020738 60 133 0.0 0.0 0.00 0.00 0.00 69 1016.6
20260502015721 60 133 0.0 1.0 0.00 0.00 0.00 69 1016.4
20260502015416 60 133 0.0 1.0 0.00 0.00 0.00 69 1016.2
20260502014648 60 141 0.0 1.0 0.00 0.00 0.00 69 1016.2
20260502014146 60 141 0.0 1.0 0.00 0.00 0.00 70 1016.0
20260502013621 60 127 0.0 1.0 0.00 0.00 0.00 70 1015.9